TimeEDT,TemperatureF,Dew PointF,Humidity,Sea Level PressureIn,VisibilityMPH,Wind Direction,Wind SpeedMPH,Gust SpeedMPH,PrecipitationIn,Events,Conditions,WindDirDegrees,DateUTC
12:15 AM,46.4,30.2,53,30.37,10.0,Calm,Calm,-,N/A,,Clear,0,2013-04-27 04:15:00
12:35 AM,48.2,30.2,50,30.37,10.0,Calm,Calm,-,N/A,,Clear,0,2013-04-27 04:35:00
12:55 AM,46.4,32.0,57,30.37,10.0,Calm,Calm,-,N/A,,Clear,0,2013-04-27 04:55:00
1:15 AM,46.4,32.0,57,30.37,10.0,Calm,Calm,-,N/A,,Clear,0,2013-04-27 05:15:00
1:35 AM,44.6,33.8,66,30.38,10.0,Calm,Calm,-,N/A,,Clear,0,2013-04-27 05:35:00
1:55 AM,44.6,33.8,66,30.38,10.0,Calm,Calm,-,N/A,,Clear,0,2013-04-27 05:55:00
2:15 AM,44.6,32.0,61,30.37,10.0,Calm,Calm,-,N/A,,Clear,0,2013-04-27 06:15:00
2:35 AM,42.8,32.0,66,30.36,10.0,Calm,Calm,-,N/A,,Clear,0,2013-04-27 06:35:00
2:55 AM,42.8,32.0,66,30.36,10.0,Calm,Calm,-,N/A,,Clear,0,2013-04-27 06:55:00
3:15 AM,41.0,33.8,76,30.35,10.0,Calm,Calm,-,N/A,,Clear,0,2013-04-27 07:15:00
3:35 AM,41.0,32.0,70,30.36,10.0,Calm,Calm,-,N/A,,Clear,0,2013-04-27 07:35:00
3:55 AM,41.0,32.0,70,30.35,10.0,Calm,Calm,-,N/A,,Clear,0,2013-04-27 07:55:00
4:15 AM,39.2,33.8,81,30.35,10.0,Calm,Calm,-,N/A,,Clear,0,2013-04-27 08:15:00
4:35 AM,41.0,32.0,70,30.34,10.0,Calm,Calm,-,N/A,,Clear,0,2013-04-27 08:35:00
4:55 AM,39.2,32.0,75,30.34,10.0,Calm,Calm,-,N/A,,Clear,0,2013-04-27 08:55:00
5:15 AM,37.4,33.8,87,30.35,10.0,Calm,Calm,-,N/A,,Clear,0,2013-04-27 09:15:00
5:35 AM,39.2,32.0,75,30.35,10.0,Calm,Calm,-,N/A,,Clear,0,2013-04-27 09:35:00
5:55 AM,37.4,33.8,87,30.34,10.0,Calm,Calm,-,N/A,,Clear,0,2013-04-27 09:55:00
6:15 AM,37.4,32.0,81,30.34,10.0,Calm,Calm,-,N/A,,Clear,0,2013-04-27 10:15:00
7:35 AM,39.2,33.8,81,30.35,10.0,Calm,Calm,-,N/A,,Clear,0,2013-04-27 11:35:00
7:55 AM,41.0,32.0,70,30.36,10.0,Calm,Calm,-,N/A,,Clear,0,2013-04-27 11:55:00
8:15 AM,44.6,32.0,61,30.36,10.0,Calm,Calm,-,N/A,,Clear,0,2013-04-27 12:15:00
8:35 AM,48.2,33.8,58,30.36,10.0,Calm,Calm,-,N/A,,Clear,0,2013-04-27 12:35:00
8:55 AM,48.2,35.6,62,30.35,10.0,Calm,Calm,-,N/A,,Clear,0,2013-04-27 12:55:00
9:15 AM,51.8,33.8,50,30.35,10.0,Calm,Calm,-,N/A,,Clear,0,2013-04-27 13:15:00
9:35 AM,55.4,35.6,47,30.35,10.0,Calm,Calm,-,N/A,,Clear,0,2013-04-27 13:35:00
9:55 AM,57.2,35.6,44,30.34,10.0,Calm,Calm,-,N/A,,Clear,0,2013-04-27 13:55:00
10:15 AM,59.0,32.0,36,30.33,10.0,Calm,Calm,-,N/A,,Clear,0,2013-04-27 14:15:00
10:35 AM,62.6,32.0,32,30.33,10.0,Calm,Calm,-,N/A,,Clear,0,2013-04-27 14:35:00
10:55 AM,62.6,28.4,27,30.33,10.0,Calm,Calm,-,N/A,,Clear,0,2013-04-27 14:55:00
11:15 AM,64.4,28.4,26,30.33,10.0,Calm,Calm,-,N/A,,Clear,0,2013-04-27 15:15:00
11:35 AM,64.4,30.2,28,30.33,10.0,Calm,Calm,-,N/A,,Clear,0,2013-04-27 15:35:00
11:55 AM,64.4,30.2,28,30.32,10.0,Calm,Calm,-,N/A,,Clear,0,2013-04-27 15:55:00
12:15 PM,64.4,30.2,28,30.31,10.0,Calm,Calm,-,N/A,,Clear,0,2013-04-27 16:15:00
12:35 PM,66.2,32.0,28,30.30,10.0,Calm,Calm,-,N/A,,Clear,0,2013-04-27 16:35:00
12:55 PM,66.2,32.0,28,30.29,10.0,Calm,Calm,-,N/A,,Clear,0,2013-04-27 16:55:00
1:15 PM,68.0,32.0,26,30.28,10.0,Calm,Calm,-,N/A,,Clear,0,2013-04-27 17:15:00
1:35 PM,69.8,32.0,25,30.28,10.0,Calm,Calm,-,N/A,,Clear,0,2013-04-27 17:35:00
1:55 PM,69.8,32.0,25,30.27,10.0,Calm,Calm,-,N/A,,Clear,0,2013-04-27 17:55:00
2:15 PM,69.8,32.0,25,30.27,10.0,Calm,Calm,-,N/A,,Clear,0,2013-04-27 18:15:00
2:35 PM,69.8,32.0,25,30.26,10.0,Calm,Calm,-,N/A,,Clear,0,2013-04-27 18:35:00
2:55 PM,69.8,32.0,25,30.25,10.0,Calm,Calm,-,N/A,,Clear,0,2013-04-27 18:55:00
3:15 PM,69.8,32.0,25,30.24,10.0,Calm,Calm,-,N/A,,Clear,0,2013-04-27 19:15:00
3:35 PM,71.6,32.0,23,30.23,10.0,Calm,Calm,-,N/A,,Clear,0,2013-04-27 19:35:00
3:55 PM,71.6,32.0,23,30.22,10.0,Calm,Calm,-,N/A,,Clear,0,2013-04-27 19:55:00
4:15 PM,73.4,32.0,22,30.21,10.0,NNW,6.9,-,N/A,,Clear,330,2013-04-27 20:15:00
4:35 PM,71.6,33.8,25,30.21,10.0,WNW,3.5,-,N/A,,Clear,300,2013-04-27 20:35:00
4:55 PM,71.6,32.0,23,30.21,10.0,Calm,Calm,-,N/A,,Partly Cloudy,0,2013-04-27 20:55:00
5:15 PM,71.6,33.8,25,30.20,10.0,Calm,Calm,-,N/A,,Partly Cloudy,0,2013-04-27 21:15:00
5:35 PM,71.6,32.0,23,30.20,10.0,Calm,Calm,-,N/A,,Mostly Cloudy,0,2013-04-27 21:35:00
5:55 PM,69.8,33.8,27,30.20,10.0,Calm,Calm,-,N/A,,Mostly Cloudy,0,2013-04-27 21:55:00
6:15 PM,69.8,33.8,27,30.19,10.0,North,4.6,-,N/A,,Mostly Cloudy,360,2013-04-27 22:15:00
6:35 PM,69.8,32.0,25,30.19,10.0,Calm,Calm,-,N/A,,Mostly Cloudy,0,2013-04-27 22:35:00
6:55 PM,69.8,33.8,27,30.19,10.0,Calm,Calm,-,N/A,,Mostly Cloudy,0,2013-04-27 22:55:00
7:35 PM,66.2,35.6,32,30.20,10.0,SSW,6.9,17.3,N/A,,Mostly Cloudy,200,2013-04-27 23:35:00
7:55 PM,66.2,35.6,32,30.20,10.0,SSW,8.1,16.1,N/A,,Scattered Clouds,210,2013-04-27 23:55:00
8:15 PM,64.4,37.4,37,30.21,10.0,SSW,5.8,-,N/A,,Mostly Cloudy,200,2013-04-28 00:15:00
8:35 PM,64.4,37.4,37,30.21,10.0,SSW,4.6,-,N/A,,Mostly Cloudy,200,2013-04-28 00:35:00
8:55 PM,64.4,37.4,37,30.21,10.0,South,5.8,-,N/A,,Overcast,190,2013-04-28 00:55:00
9:15 PM,62.6,37.4,39,30.21,10.0,Calm,Calm,-,N/A,,Scattered Clouds,0,2013-04-28 01:15:00
9:35 PM,62.6,37.4,39,30.21,10.0,Calm,Calm,-,N/A,,Clear,0,2013-04-28 01:35:00
9:55 PM,60.8,37.4,42,30.21,10.0,Calm,Calm,-,N/A,,Clear,0,2013-04-28 01:55:00
10:15 PM,60.8,37.4,42,30.21,10.0,South,3.5,-,N/A,,Clear,170,2013-04-28 02:15:00
10:35 PM,60.8,37.4,42,30.21,10.0,Calm,Calm,-,N/A,,Clear,0,2013-04-28 02:35:00
10:55 PM,60.8,37.4,42,30.21,10.0,Calm,Calm,-,N/A,,Clear,0,2013-04-28 02:55:00
11:15 PM,59.0,39.2,48,30.22,10.0,Calm,Calm,-,N/A,,Partly Cloudy,0,2013-04-28 03:15:00
11:35 PM,57.2,39.2,51,30.21,10.0,Calm,Calm,-,N/A,,Mostly Cloudy,0,2013-04-28 03:35:00
11:55 PM,59.0,39.2,48,30.21,10.0,Calm,Calm,-,N/A,,Partly Cloudy,0,2013-04-28 03:55:00